Location: Nashville
(36.1660°N, 86.7840°W)
Time: 20:15:12
(UTC-05:00)

ZACube-1 - Visible Passes

Search period start: 18 May 2022 00:00
Search period end: 28 May 2022 00:00
Orbit: 581 x 663 km, 97.6° (Epoch: 18 May)

Date Brightness Start Highest point End Pass type
(mag) Time Alt. Az. Time Alt. Az. Time Alt. Az.
18 May ? 05:03:23 10° N 05:07:25 54° WNW 05:11:25 10° SSW visible
19 May ? 03:46:28 10° NE 03:49:02 16° E 03:51:36 10° SE visible
20 May ? 04:03:38 10° NE 04:07:06 26° E 04:10:34 10° SSE visible
21 May ? 04:21:12 10° NNE 04:25:08 43° E 04:29:03 10° S visible
22 May ? 04:38:58 10° NNE 04:43:06 74° ESE 04:47:13 10° S visible
23 May ? 04:56:56 10° N 05:01:01 65° WNW 05:05:06 10° SSW visible
24 May ? 03:40:26 10° ENE 03:42:34 14° E 03:44:41 10° SE visible
25 May ? 03:57:21 10° NE 04:00:36 22° E 04:03:53 10° SSE visible
26 May ? 04:14:47 10° NNE 04:18:36 36° E 04:22:28 10° SSE visible
27 May ? 04:32:27 10° NNE 04:36:33 62° E 04:40:41 10° S visible
